Weather History for KLYH - January, 2014

Change the Weather History Date:

Saturday, January 25, 2014

  Actual Average Record
Temperature  
Mean Temperature 25 °F 35 °F  
Max Temperature 35 °F 46 °F 76 °F (1943)
Min Temperature 15 °F 25 °F 8 °F (1963)
Degree Days  
Heating Degree Days 40 30  
Month to date heating degree days 859 750  
Since 1 July heating degree days 2513 2495  
Cooling Degree Days 0 0  
Month to date cooling degree days 0 0  
Year to date cooling degree days 0 0  
Moisture  
Dew Point 7 °F    
Average Humidity 46    
Maximum Humidity 63    
Minimum Humidity 29    
Precipitation  
Precipitation 0.00 in 0.10 in 2.28 in (1978)
Month to date precipitation 3.25 2.53  
Year to date precipitation 3.25 2.53  
Snow  
Snow 0.00 in - - ()
Month to date snowfall 1.2  
Since 1 July snowfall 1.2  
Snow Depth 0.00 in    
Sea Level Pressure  
Sea Level Pressure 29.77 in    
Wind  
Wind Speed 11 mph (SW)    
Max Wind Speed 21 mph    
Max Gust Speed 29 mph    
Visibility 10 miles    
Events      
T = Trace of Precipitation, MM = Missing Value Source: NWS Daily Summary

Daily Weather History Graph

Daily Weather History Graph

Search for Another Location

Airport or City:

Trip Planner

Search our weather history database for the weather conditions in past years. The results will help you decide how hot, cold, wet, or windy it might be!

Date:

Astronomy

Jan. 25, 2014 Rise Set
Actual Time 7:25 AM EST 5:33 PM EST
Civil Twilight 6:57 AM EST 6:01 PM EST
Nautical Twilight 6:25 AM EST 6:33 PM EST
Astronomical Twilight 5:54 AM EST 7:04 PM EST
Moon 1:55 AM EST (1/25) 12:32 PM EST (1/25)
Length of Visible Light 11h 04m
Length of Day
10h 08m
Waning Crescent, 34% of the Moon is Illuminated
Jan 25
Waning Crescent
Jan 30
New
Feb 6
First Quarter
Feb 14
Full
Feb 22
Last Quarter

Hourly Weather History & Observations

Time (EST) Temp. Windchill Dew Point Humidity Pressure Visibility Wind Dir Wind Speed Gust Speed Precip Events Conditions
12:54 AM 16.0 °F 1.1 °F -2.0 °F 45% 30.11 in 10.0 mi SSW 15.0 mph - N/A   Clear
1:54 AM 16.0 °F 2.9 °F -2.0 °F 45% 30.07 in 10.0 mi SSW 11.5 mph - N/A   Clear
2:54 AM 15.1 °F 3.3 °F -2.0 °F 47% 30.03 in 10.0 mi SSW 9.2 mph - N/A   Clear
3:54 AM 17.1 °F 5.0 °F -0.9 °F 45% 29.98 in 10.0 mi SSW 10.4 mph - N/A   Clear
4:54 AM 18.0 °F 6.1 °F -0.9 °F 44% 29.94 in 10.0 mi SSW 10.4 mph - N/A   Clear
5:54 AM 19.9 °F 8.6 °F -0.9 °F 40% 29.91 in 10.0 mi SSW 10.4 mph - N/A   Clear
6:54 AM 19.9 °F 7.9 °F -0.9 °F 40% 29.88 in 10.0 mi SSW 11.5 mph - N/A   Clear
7:54 AM 19.9 °F 7.3 °F -0.9 °F 40% 29.85 in 10.0 mi SSW 12.7 mph - N/A   Overcast
8:54 AM 21.0 °F 7.1 °F -0.0 °F 40% 29.81 in 10.0 mi SSW 16.1 mph - N/A   Overcast
9:54 AM 21.9 °F 11.0 °F 1.0 °F 40% 29.78 in 10.0 mi SSW 10.4 mph 28.8 mph N/A   Scattered Clouds
10:54 AM 24.1 °F 12.5 °F 1.0 °F 37% 29.73 in 10.0 mi SW 12.7 mph 21.9 mph N/A   Scattered Clouds
11:54 AM 26.1 °F 15.6 °F 1.9 °F 35% 29.70 in 10.0 mi SSW 11.5 mph - N/A   Overcast
12:54 PM 32.0 °F 22.5 °F 3.9 °F 31% 29.62 in 10.0 mi SSW 12.7 mph 18.4 mph N/A   Mostly Cloudy
1:54 PM 35.1 °F 25.2 °F 7.0 °F 31% 29.58 in 10.0 mi SW 16.1 mph 23.0 mph N/A   Overcast
2:54 PM 33.1 °F 23.0 °F 14.0 °F 46% 29.57 in 10.0 mi SW 15.0 mph 27.6 mph N/A   Overcast
3:54 PM 33.1 °F 23.0 °F 17.1 °F 52% 29.58 in 10.0 mi SW 15.0 mph 23.0 mph N/A   Overcast
4:54 PM 33.1 °F 26.1 °F 17.1 °F 52% 29.60 in 10.0 mi SW 8.1 mph 17.3 mph N/A   Scattered Clouds
5:54 PM 33.1 °F 26.9 °F 17.1 °F 52% 29.62 in 10.0 mi WSW 6.9 mph 23.0 mph N/A   Overcast
6:54 PM 30.9 °F 24.3 °F 17.1 °F 57% 29.65 in 10.0 mi SW 6.9 mph - N/A   Scattered Clouds
7:54 PM 30.0 °F 21.1 °F 16.0 °F 56% 29.65 in 10.0 mi SW 10.4 mph 21.9 mph N/A   Scattered Clouds
8:54 PM 28.9 °F 21.9 °F 17.1 °F 61% 29.66 in 10.0 mi SW 6.9 mph - N/A   Mostly Cloudy
9:54 PM 30.9 °F 22.8 °F 18.0 °F 59% 29.69 in 10.0 mi WSW 9.2 mph 19.6 mph N/A   Partly Cloudy
10:54 PM 30.0 °F 24.1 °F 16.0 °F 56% 29.73 in 10.0 mi WNW 5.8 mph - N/A   Overcast
11:54 PM 28.9 °F 21.1 °F 14.0 °F 54% 29.76 in 10.0 mi West 8.1 mph 19.6 mph N/A   Mostly Cloudy